Regional Weather Roundup
Issued by NWS Kansas City/Pleasant Hill, MO

Home | Current Version | Previous Version | Text Only | Print | Product List | Glossary On
Versions: 1 2 3 4 5 6 7 8 9 10 11 12 13 14 15 16 17 18 19 20 21 22 23 24 25 26 27 28 29 30 31 32 33 34 35 36 37 38 39 40 41 42 43 44 45 46 47 48 49 50
000
ASUS43 KEAX 070411
RWREAX

WEATHER ROUNDUP FOR EASTERN KANSAS AND NORTHWEST MISSOURI
NATIONAL WEATHER SERVICE KANSAS CITY/PLEASANT HILL MO
1000 PM CST FRI MAR 06 2015

KSZ040-057-103>105-MOZ028-029-037-043-070500-
...KANSAS CITY METROPOLITAN AREA...

CITY           SKY/WX    TMP DP  RH WIND       PRES   REMARKS
K.C. INTL      CLEAR     47  28  47 SW15      30.21R
K.C. DOWNTOWN  CLEAR     51  27  39 SW14      30.22R
LEES SUMMIT    CLEAR     45  27  49 S10       30.23S
OLATHE - IXD   CLEAR     45  28  51 S15       30.24S
OLATHE - OJC   CLEAR     43  27  53 SW9       30.23R
LAWRENCE       CLEAR     48  27  44 SW18G26   30.22S

$$

MOZ001>008-011>017-020>025-030>033-038>040-044>046-053-054-070500-
...NORTHERN AND CENTRAL MISSOURI...

CITY           SKY/WX    TMP DP  RH WIND       PRES   REMARKS
ST. JOSEPH     CLEAR     41  23  48 S9        30.18S
MOSBY          CLEAR     41  27  56 S3        30.22S
WARRENSBURG    CLEAR     43  30  61 S14G20    30.26R
WHITEMAN AFB   CLEAR     42  30  63 SW17      30.25S WCI  34
CLINTON        CLEAR     45  30  57 SW9G17    30.30R
SEDALIA        CLEAR     44  29  55 SW15      30.27S
WARSAW         NOT AVBL
MARSHALL       CLEAR     43  32  65 SW10      30.25S
CHILLICOTHE      N/A     42  30  62 S7        30.21R
MOBERLY        CLEAR     43  28  56 SW12      30.24S
KIRKSVILLE     CLEAR     42  31  64 SW12      30.19S

$$

MOZ041-047>049-056>058-063>065-088>090-097-070500-
...EASTERN AND SOUTHERN MISSOURI...

CITY           SKY/WX    TMP DP  RH WIND       PRES   REMARKS
ST. LOUIS INTL CLEAR     38  23  55 S9        30.31R WCI  31
SPIRIT OF STL  CLEAR     42  24  49 SW6       30.30R
COLUMBIA       FAIR      41  29  62 SW13      30.27S WCI  34
JEFFERSON CITY CLEAR     45  27  49 SE3       30.30R
MEXICO         CLEAR     43  34  70 SW10      30.26R
HANNIBAL       CLEAR     45  27  49 SW10G20   30.21F
ROLLA          CLEAR     38  25  59 S13       30.30R WCI  30
OSAGE BEACH    CLEAR     41  27  56 SW9       30.31S
SPRINGFIELD    CLEAR     36  25  64 S10       30.34S WCI  28
BRANSON        CLEAR     39  25  56 SW6       30.38S WCI  35
NEVADA         CLEAR     41  28  60 SW14G22   30.32S WCI  33
JOPLIN         CLEAR     43  25  49 S14       30.35S
WEST PLAINS    CLEAR     34  21  59 SW6       30.38R WCI  29

$$

IAZ060-094-KSZ022-034>040-054-083-096-NEZ052-066-093-070500-
...KANSAS...SOUTHEAST NEBRASKA AND IOWA...

CITY           SKY/WX    TMP DP  RH WIND       PRES   REMARKS
TOPEKA         CLEAR     47  27  45 S7        30.22R
MANHATTAN      CLEAR     46  29  51 SW13      30.21R
EMPORIA        CLEAR     45  29  53 S20       30.24R
CHANUTE        CLEAR     42  27  55 S14       30.30S WCI  35
WICHITA        CLEAR     44  30  57 S14       30.27S
OMAHA          CLOUDY    39  23  52 CALM      30.11S
LINCOLN        CLEAR     39  19  44 S5        30.14R
FALLS CITY     PTCLDY    44  19  36 SW12      30.15S
LAMONI         PTCLDY    41  24  51 SW13      30.13S WCI  34
DES MOINES     CLOUDY    45  24  43 NW5       30.12S

$$




USA.gov is the U.S. government's official web portal to all federal, state and local government web resources and services.